Location: Burgfelden
(48.2413°N, 8.9333°E)
Time: 23:57:46
(UTC+00:00)

Daily predictions for brighter satellites

Satellite Brightness Start Highest point End
(mag) Time Altitude Azimuth Time Altitude Azimuth Time Altitude Azimuth
Cosmos 2026 Rocket 4.2 15:55:16 10° N 16:01:31 81° W 16:07:49 10° S
Cosmos 1697 Rocket 4.2 16:00:50 10° SE 16:04:27 18° E 16:08:04 10° ENE
BREEZE M DEB (TANK) 4.2 15:48:19 10° WNW 16:06:41 87° SSW 16:11:04 10° ESE
Cosmos 1634 Rocket 4.0 16:02:55 10° S 16:09:06 77° E 16:15:16 10° NNE
Intercosmos 24 3.8 16:05:25 10° N 16:09:17 54° ENE 16:12:46 10° SSE
Cosmos 405 Rocket 2.2 16:06:15 10° N 16:09:29 63° ENE 16:12:41 10° SSE
Lacrosse 5 rocket 1.8 16:09:00 10° WSW 16:12:37 44° NNW 16:16:10 10° NE
Cosmos 1461 4.1 16:14:00 10° SSE 16:17:06 23° ESE 16:20:09 10° ENE
CENTAUR R/B 3.0 16:11:37 10° WSW 16:17:16 56° NW 16:24:27 10° NE
Meteor 1-20 Rocket 4.5 16:15:35 10° N 16:20:47 42° ENE 16:25:56 10° SE
Cosmos 1455 Rocket 4.2 16:17:19 10° SSW 16:21:26 43° WNW 16:25:38 10° N
Cosmos 1602 Rocket 3.9 16:19:17 10° N 16:23:29 42° ENE 16:27:38 10° SSE
Cosmos 2279 Rocket 4.0 16:17:32 10° S 16:23:41 70° E 16:29:53 10° NNE
Cosmos 1570 Rocket 4.3 16:21:36 10° NNW 16:26:57 77° WSW 16:32:15 10° SSE
SMAP 3.0 16:25:32 10° SSE 16:30:07 64° ENE 16:34:45 10° N
Cosmos 1656 3.7 16:25:51 10° SSW 16:31:27 77° ESE 16:37:09 10° NNE
UNK 3.8 16:28:36 10° NNE 16:33:08 57° E 16:37:37 10° S
YAOGAN 1 3.9 16:31:23 10° ESE 16:34:13 18° ENE 16:37:03 10° NNE
Cosmos 2228 3.6 16:30:51 10° SSW 16:35:01 59° WNW 16:39:14 10° N
NOSS 2-2 (C) 3.8 16:32:25 10° WSW 16:35:24 36° NW 16:38:06 11° NNE
Landsat 7 3.8 16:31:05 10° SSE 16:35:37 56° ENE 16:40:11 10° N
SAR-Lupe-4 3.8 16:32:31 10° SE 16:35:56 46° ENE 16:39:22 10° N
Cosmos 1867 3.8 16:31:05 10° NNW 16:36:25 50° NE 16:41:42 10° ESE
Cosmos 1486 Rocket 4.0 16:31:23 10° S 16:36:30 65° ESE 16:41:42 10° NNE
Cosmos 2297 Rocket 2.2 16:34:47 10° NNW 16:40:30 83° ENE 16:46:10 10° SSE
USA 290 2.1 16:37:16 10° NNW 16:40:32 71° ENE 16:43:46 10° SSE
USA 215 3.9 16:35:28 13° ENE 16:40:57 41° N 16:47:00 10° WNW
Cosmos 2180 Rocket 4.4 16:35:10 10° S 16:41:14 67° E 16:47:21 10° NNE
Cosmos 773 Rocket 4.2 16:38:33 10° NNW 16:43:46 77° WSW 16:49:00 10° SSE
SAR-Lupe-1 4.2 16:41:29 10° SSE 16:44:59 51° ENE 16:48:31 10° N
Cosmos 1782 2.6 16:41:50 10° SSW 16:45:26 78° W 16:49:02 10° N
IRIDIUM 106 4.3 16:41:56 10° N 16:47:09 65° E 16:52:20 10° SSE
ATLAS CENTAUR R/B 1.5 16:44:16 10° NW 16:47:26 52° SW 16:50:30 10° SSE
CZ-4C R/B 2.9 16:41:36 10° NW 16:48:27 74° NE 16:57:01 10° SE
Cosmos 1607 3.9 16:43:28 10° NW 16:49:44 88° ENE 16:56:02 10° SE
Cosmos 1733 3.6 16:48:45 10° NW 16:50:08 24° W 16:51:30 10° SSW
CZ-2D R/B 2.6 16:48:23 10° SSE 16:51:29 67° ENE 16:54:38 10° N
IRS-P3 4.1 16:49:13 10° SSE 16:54:26 61° ENE 16:59:41 10° N
Lacrosse 4 Rocket 3.5 16:52:24 10° W 16:55:20 19° NW 16:58:15 10° N
ARIANE 5 R/B 2.4 16:51:08 10° SSE 16:56:11 85° ENE 17:01:20 10° NNW
Meteor 1-25 Rocket 4.3 16:50:23 10° N 16:56:11 63° ENE 17:01:54 10° SSE
Cosmos 990 Rocket 4.5 16:51:48 10° S 16:56:30 38° ESE 16:59:48 18° NE
Cosmos 2219 4.2 16:52:16 10° N 16:57:03 27° NE 16:59:37 20° E
Cosmos 1825 Rocket 3.7 16:53:03 10° N 16:57:17 47° ENE 17:01:27 10° SSE
NOSS 2-3 (E) 4.5 16:55:47 10° S 16:58:41 22° ESE 16:59:21 21° ESE
Cosmos 1758 Rocket 4.4 16:55:17 10° NNW 16:59:29 52° W 17:03:38 10° S
Cosmos 2266 Rocket 3.9 16:53:31 10° N 16:59:44 80° E 17:05:47 10° SSE
NOSS 2-3 (D) 4.5 16:57:48 10° S 17:00:41 22° ESE 17:01:12 21° ESE
Cosmos 2098 Rocket 3.4 16:57:49 10° SSW 17:01:50 68° WNW 17:06:38 10° N
Meteor 1-5 Rocket 4.3 16:58:31 10° N 17:03:39 47° ENE 17:08:53 10° SSE
Cosmos 2151 3.1 17:00:44 10° NNW 17:04:54 76° W 17:09:03 10° S
Cosmos 1743 3.3 17:02:22 10° NNW 17:05:32 48° W 17:08:39 10° S
SPOT 1/Viking Rocket 3.6 17:01:07 10° SE 17:06:09 52° ENE 17:11:13 10° N
Cosmos 1980 Rocket 3.2 17:02:11 10° SSE 17:06:43 25° ESE 17:08:00 23° E
Cosmos 1844 Rocket 4.4 17:08:09 10° N 17:10:59 15° NNE 17:10:59 15° NNE
Cosmos 2058 Rocket 4.2 17:11:53 10° SE 17:14:42 24° ESE 17:14:42 24° ESE
SL-16 R/B 3.6 17:09:56 10° N 17:15:46 43° WNW 17:21:33 10° SW
Cosmos 2263 Rocket 2.4 17:13:23 10° NNW 17:18:51 47° NE 17:23:09 16° ESE
NOSS 3-2 (C) 3.1 17:14:10 10° SW 17:19:13 89° SE 17:23:01 23° NE
NOSS 3-2 (A) 4.0 17:14:35 10° WSW 17:19:35 47° NW 17:24:05 17° NNE
CZ-4 R/B 4.2 17:19:06 10° SSE 17:23:01 73° ENE 17:26:59 10° N
MOS 1 Rocket 3.6 17:18:35 10° S 17:23:27 76° WSW 17:28:37 10° NNW
GEOS 3 Rocket 4.2 17:19:36 17° NNE 17:23:37 55° NW 17:28:50 10° WSW
BREEZE M DEB (TANK) 2.3 17:23:31 10° WSW 17:25:20 47° SSW 17:25:20 47° SSW
Cosmos 1076 Rocket 3.4 17:22:23 10° N 17:26:40 61° ENE 17:30:56 10° SSE
Cosmos 1933 3.2 17:24:09 10° SSW 17:27:59 78° W 17:30:45 18° N
Cosmos 1606 Rocket 3.6 17:27:03 10° S 17:31:26 83° W 17:35:24 13° N
Cosmos 2084 Rocket 4.0 17:27:22 10° NW 17:31:31 58° SW 17:35:38 10° SSE
Cosmos 2227 Rocket 2.1 17:26:00 10° NNW 17:31:41 90° ENE 17:37:20 10° SSE
Cosmos 1538 Rocket 4.1 17:27:27 10° NNW 17:32:39 55° ENE 17:36:28 18° SE
PSLV R/B 3.4 17:36:04 55° ENE 17:36:08 55° ENE 17:40:06 10° N
CZ-2D R/B 3.3 17:32:41 10° SSE 17:36:54 80° ENE 17:41:04 10° NNW
COSMO-SKYMED 1 2.6 17:39:14 51° ESE 17:39:14 51° ESE 17:42:59 10° S
SL-19 R/B 4.1 17:35:16 10° SSE 17:40:34 67° ENE 17:46:11 10° NNW
Resurs 1-3 3.4 17:36:39 10° SSE 17:40:55 70° ENE 17:45:13 10° N
BREEZE-M DEB (TANK) 3.8 17:40:14 10° WNW 17:43:51 87° NNE 17:48:33 30° ESE
Meteor 2-20 4.3 17:40:54 10° S 17:47:03 77° E 17:53:14 10° NNE
Cosmos 1697 Rocket 2.7 17:42:04 10° SSW 17:47:41 80° WNW 17:50:44 28° NNE
Lacrosse 5 rocket 2.9 17:47:25 10° WNW 17:49:58 21° NNW 17:49:58 21° NNW
Cosmos 1354 Rocket 4.3 17:45:11 10° SSW 17:50:25 68° WNW 17:53:34 24° NNE
BREEZE-M DEB (TANK) 4.2 17:49:20 10° WNW 17:53:09 64° NNE 17:57:03 36° E
Cosmos 1461 3.5 17:49:53 10° WSW 17:53:38 44° NW 17:54:17 40° NNW
Spot 4 Rocket 4.0 17:49:33 10° SSE 17:54:40 83° WSW 17:59:49 10° NNW
IRAS Rocket 4.1 17:50:21 10° SSE 17:55:50 85° ENE 18:01:21 10° NNW
Cosmos 1726 Rocket 4.0 17:52:08 10° SSW 17:56:45 64° WNW 17:59:49 21° N
SL-08 R/B 4.4 17:54:01 10° N 18:00:17 61° ENE 18:06:32 10° SSE
Cosmos 1655 Rocket 4.2 17:54:47 10° NNW 18:01:00 69° W 18:07:09 10° S
SKYMED 2 3.9 17:59:35 32° N 18:01:28 63° WNW 18:05:45 10° SSW
Gbstr 26 Del rocket 3.2 17:59:27 10° WSW 18:02:38 55° SW 18:02:38 55° SW
Cosmos 1898 Rocket 4.1 17:59:43 10° S 18:03:17 40° SSE 18:03:17 40° SSE
Meteor 2-10 4.1 18:02:56 10° NNW 18:08:17 83° W 18:13:48 10° S
Meteor 2-20 Rocket 4.3 18:02:56 10° S 18:09:12 81° E 18:12:29 29° NNE
CENTAUR R/B 4.1 18:04:03 10° WNW 18:09:33 27° NNW 18:12:27 22° NNE
YAOGAN 1 3.1 18:05:28 10° S 18:09:39 57° W 18:13:52 10° NNW
Cosmos 2082 3.7 18:12:01 10° NNW 18:17:03 63° NNE 18:17:03 63° NNE
Meteor 1-26 Rocket 4.0 18:12:48 10° S 18:18:03 82° SE 18:18:03 82° SE
USA 238 DEB 3.3 18:13:14 10° SSW 18:19:19 77° SE 18:19:57 70° ENE
USA 238 3.3 18:13:20 10° SSW 18:19:26 76° SE 18:20:02 70° E
USA 215 3.4 18:22:49 53° NE 18:23:17 54° NNE 18:29:39 10° NW
Cosmos 372 Rocket 4.2 18:22:08 10° SSW 18:26:26 63° SSW 18:26:26 63° SSW
Aureole 1 Rocket 3.9 18:24:02 10° SSW 18:27:16 52° SW 18:27:16 52° SW
CZ-4C R/B 4.4 18:30:09 10° NW 18:36:41 35° WSW 18:44:20 10° S
Cosmos 2219 3.4 18:35:59 10° NNW 18:41:35 68° WSW 18:41:35 68° WSW
Cosmos 1980 Rocket 2.7 18:44:43 10° SW 18:49:48 57° W 18:49:48 57° W
Cosmos 2263 Rocket 3.7 18:57:35 10° NW 19:02:35 33° WSW 19:04:58 24° SSW
